Weather History for KGRF - November, 2013

Change the Weather History Date:

Monday, November 25, 2013

  Actual Average Record
Temperature  
Mean Temperature 38 °F -  
Max Temperature 51 °F 47 °F 57 °F (2014)
Min Temperature 26 °F 35 °F 26 °F (2010)
Degree Days  
Heating Degree Days 26    
Moisture  
Dew Point 32 °F    
Average Humidity 92    
Maximum Humidity 100    
Minimum Humidity 63    
Precipitation  
Precipitation 0.00 in - - ()
Sea Level Pressure  
Sea Level Pressure 30.29 in    
Wind  
Wind Speed 4 mph (SE)    
Max Wind Speed 8 mph    
Max Gust Speed -    
Visibility 9 miles    
Events      
Averages and records for this station are not official NWS values.
T = Trace of Precipitation, MM = Missing Value Source: NWS Daily Summary

Daily Weather History Graph

Daily Weather History Graph

Search for Another Location

Airport or City:

Trip Planner

Search our weather history database for the weather conditions in past years. The results will help you decide how hot, cold, wet, or windy it might be!

Date:

Astronomy

Nov. 25, 2013 Rise Set
Actual Time 7:28 AM PST 4:26 PM PST
Civil Twilight 6:54 AM PST 5:00 PM PST
Nautical Twilight 6:16 AM PST 5:38 PM PST
Astronomical Twilight 5:39 AM PST 6:14 PM PST
Moon No Moon Rise 12:32 PM PST (11/25)
Length of Visible Light 10h 06m
Length of Day
8h 57m
Waning Gibbous, 50% of the Moon is Illuminated
Nov 25
Waning Gibbous
Dec 2
New
Dec 9
First Quarter
Dec 17
Full
Dec 25
Last Quarter

Hourly Weather History & Observations

Time (PST) Temp. Windchill Dew Point Humidity Pressure Visibility Wind Dir Wind Speed Gust Speed Precip Events Conditions
12:38 AM 28.4 °F 20.4 °F 28.4 °F 100% 30.25 in 1.8 mi SE 8.1 mph - N/A   Partly Cloudy
12:43 AM 30.2 °F 24.3 °F 30.2 °F 100% 30.25 in 1.0 mi SE 5.8 mph - N/A   Clear
12:53 AM 30.2 °F - 30.2 °F 100% 30.26 in 2.0 mi ESE 2.3 mph - N/A   Clear
12:58 AM 29.8 °F - 29.5 °F 99% 30.28 in 8.0 mi ESE 2.3 mph - N/A   Clear
1:08 AM 28.4 °F - 28.4 °F 100% 30.26 in 2.0 mi Calm Calm - N/A   Clear
1:13 AM 28.4 °F - 28.4 °F 100% 30.26 in 3.0 mi East 1.2 mph - N/A   Clear
1:58 AM 29.7 °F 26.1 °F 29.3 °F 99% 30.28 in 10.0 mi SE 3.5 mph - N/A   Clear
2:58 AM 29.8 °F - 29.7 °F 99% 30.29 in 10.0 mi East 2.3 mph - N/A   Clear
3:58 AM 27.9 °F - 27.7 °F 99% 30.29 in 10.0 mi SE 2.3 mph - N/A   Clear
4:58 AM 28.4 °F - 28.2 °F 99% 30.29 in 10.0 mi NE 1.2 mph - N/A   Clear
5:58 AM 28.2 °F 24.4 °F 28.0 °F 99% 30.30 in 10.0 mi SSE 3.5 mph - N/A   Clear
6:58 AM 26.2 °F - 26.1 °F 99% 30.30 in 10.0 mi ESE 1.2 mph - N/A   Clear
7:58 AM 26.6 °F 21.2 °F 26.4 °F 99% 30.32 in 10.0 mi SE 4.6 mph - N/A   Clear
8:58 AM 31.8 °F - 31.5 °F 99% 30.32 in 10.0 mi Calm Calm - N/A   Clear
9:58 AM 37.9 °F - 36.3 °F 94% 30.33 in 10.0 mi SE 2.3 mph - 0.00 in   Clear
10:58 AM 43.7 °F - 37.6 °F 79% 30.33 in 10.0 mi SSE 2.3 mph - N/A   Clear
11:58 AM 45.9 °F - 37.2 °F 72% 30.32 in 10.0 mi SW 1.2 mph - N/A   Clear
12:58 PM 48.7 °F - 38.5 °F 68% 30.31 in 10.0 mi WSW 1.2 mph - N/A   Clear
1:58 PM 51.6 °F - 39.2 °F 63% 30.30 in 10.0 mi ESE 2.3 mph - N/A   Clear
2:58 PM 49.8 °F - 38.1 °F 64% 30.30 in 10.0 mi SE 5.8 mph - N/A   Clear
3:58 PM 47.3 °F - 38.1 °F 70% 30.30 in 10.0 mi ESE 2.3 mph - N/A   Clear
4:58 PM 41.4 °F 39.4 °F 38.8 °F 91% 30.30 in 10.0 mi SSE 3.5 mph - N/A   Clear
5:58 PM 39.6 °F - 39.4 °F 99% 30.30 in 10.0 mi East 1.2 mph - N/A   Clear
6:58 PM 36.1 °F - 36.0 °F 99% 30.30 in 10.0 mi SE 2.3 mph - N/A   Clear
7:58 PM 32.9 °F 27.5 °F 32.7 °F 99% 30.30 in 10.0 mi SE 5.8 mph - N/A   Clear
8:58 PM 32.7 °F 28.3 °F 32.5 °F 99% 30.30 in 10.0 mi ESE 4.6 mph - N/A   Clear
9:43 PM 32.0 °F 28.7 °F 32.0 °F 100% 30.27 in 10.0 mi ESE 3.5 mph - N/A   Clear
9:55 PM 32.0 °F - 32.0 °F 100% 30.29 in 10.0 mi East 1.2 mph - N/A   Clear
10:55 PM 30.2 °F 24.3 °F 28.4 °F 93% 30.29 in 10.0 mi SE 5.8 mph - N/A   Clear
11:57 PM 30.2 °F 25.4 °F 28.4 °F 93% 30.29 in 10.0 mi ESE 4.6 mph - N/A   Clear